When you browse on this site, cookies collect data to enhance your experience and personalize the content and advertising you see.
Visit our Privacy Policy to learn more. By continuing to use the site, you agree to this use of cookies and data.
  • In Latvia
  • List of Countries
  • For 7 days
  • Water Temperature
  • Satellite Maps
  • Weather Map
  • Weather Widgets
  • user-avatar
    Login

    Hourly Weather Thessaloniki

    Today, 13 December, Thursday

    Time Temperature Precipitation Wind Pressure Humidity
    00:00 +5°C° 0 mm 1 mps 762 mmHg 57%
    01:00 +5°C° 0 mm 1 mps 762 mmHg 56%
    02:00 +4°C° 0 mm 1 mps 762 mmHg 56%
    03:00 +4°C° 0 mm 1 mps 762 mmHg 56%
    04:00 +4°C° 0 mm 1 mps 762 mmHg 55%
    05:00 +4°C° 0 mm 1 mps 762 mmHg 55%
    06:00 +5°C° 0 mm 1 mps 762 mmHg 54%
    07:00 +5°C° 0 mm 1 mps 762 mmHg 54%
    08:00 +5°C° 0 mm 1 mps 762 mmHg 53%
    09:00 +6°C° 0.1 mm 1 mps 762 mmHg 51%
    10:00 +7°C° 0.1 mm 1 mps 761 mmHg 49%
    11:00 +7°C° 0.1 mm 1 mps 761 mmHg 46%
    12:00 +8°C° 0.2 mm 1 mps 761 mmHg 49%
    13:00 +8°C° 0.2 mm 1 mps 761 mmHg 51%
    14:00 +8°C° 0.2 mm 1 mps 760 mmHg 53%
    15:00 +7°C° 0.6 mm 1 mps 760 mmHg 59%
    16:00 +6°C° 0.6 mm 2 mps 760 mmHg 64%
    17:00 +5°C° 0.6 mm 2 mps 760 mmHg 70%
    18:00 +5°C° 0.4 mm 2 mps 760 mmHg 72%
    19:00 +5°C° 0.4 mm 2 mps 760 mmHg 75%
    20:00 +4°C° 0.4 mm 2 mps 760 mmHg 78%
    21:00 +4°C° 0.2 mm 2 mps 760 mmHg 79%
    22:00 +5°C° 0.2 mm 1 mps 760 mmHg 80%
    23:00 +5°C° 0.2 mm 1 mps 760 mmHg 82%

    Tomorrow, 14 December, Friday

    Time Temperature Precipitation Wind Pressure Humidity
    00:00 +5°C° 0.1 mm 1 mps 760 mmHg 83%
    01:00 +5°C° 0.1 mm 1 mps 760 mmHg 84%
    02:00 +5°C° 0.1 mm 1 mps 760 mmHg 85%
    03:00 +6°C° 0.2 mm 1 mps 760 mmHg 86%
    04:00 +6°C° 0.2 mm 1 mps 760 mmHg 87%
    05:00 +6°C° 0.2 mm 1 mps 759 mmHg 87%
    06:00 +6°C° 0.4 mm 1 mps 759 mmHg 88%
    07:00 +6°C° 0.4 mm 1 mps 760 mmHg 89%
    08:00 +6°C° 0.4 mm 1 mps 760 mmHg 90%
    09:00 +7°C° 0.3 mm 1 mps 760 mmHg 88%
    10:00 +8°C° 0.3 mm 1 mps 760 mmHg 87%
    11:00 +8°C° 0.3 mm 2 mps 760 mmHg 85%
    12:00 +8°C° 0.2 mm 2 mps 759 mmHg 85%
    13:00 +10°C° 0.2 mm 1 mps 759 mmHg 85%
    14:00 +10°C° 0.2 mm 1 mps 759 mmHg 84%
    15:00 +10°C° 0 mm 1 mps 759 mmHg 86%
    16:00 +10°C° 0 mm 1 mps 759 mmHg 88%
    17:00 +9°C° 0 mm 1 mps 759 mmHg 90%
    18:00 +10°C° 0 mm 1 mps 759 mmHg 90%
    19:00 +10°C° 0 mm 1 mps 759 mmHg 90%
    20:00 +10°C° 0 mm 1 mps 760 mmHg 90%
    21:00 +10°C° 0 mm 1 mps 760 mmHg 91%
    22:00 +10°C° 0 mm 1 mps 760 mmHg 91%
    23:00 +10°C° 0 mm 1 mps 760 mmHg 92%

    Day after tomorrow, 15 December, Saturday

    Time Temperature Precipitation Wind Pressure Humidity
    00:00 +10°C° 0 mm 1 mps 759 mmHg 92%
    01:00 +10°C° 0 mm 1 mps 759 mmHg 92%
    02:00 +10°C° 0 mm 1 mps 759 mmHg 93%
    03:00 +10°C° 0 mm 1 mps 759 mmHg 93%
    04:00 +10°C° 0 mm 1 mps 758 mmHg 93%
    05:00 +10°C° 0 mm 1 mps 758 mmHg 93%
    06:00 +10°C° 0 mm 1 mps 758 mmHg 93%
    07:00 +10°C° 0 mm 1 mps 758 mmHg 93%
    08:00 +10°C° 0 mm 1 mps 758 mmHg 93%
    09:00 +11°C° 0 mm 1 mps 758 mmHg 91%
    10:00 +12°C° 0 mm 1 mps 758 mmHg 89%
    11:00 +12°C° 0 mm 1 mps 758 mmHg 86%
    12:00 +13°C° 0 mm 1 mps 757 mmHg 84%
    13:00 +13°C° 0 mm 1 mps 757 mmHg 83%
    14:00 +14°C° 0 mm 1 mps 756 mmHg 81%
    15:00 +13°C° 0 mm 1 mps 756 mmHg 84%
    16:00 +13°C° 0 mm 1 mps 756 mmHg 87%
    17:00 +12°C° 0 mm 1 mps 756 mmHg 89%
    18:00 +12°C° 0.2 mm 1 mps 756 mmHg 90%
    19:00 +12°C° 0.2 mm 1 mps 756 mmHg 91%
    20:00 +12°C° 0.2 mm 1 mps 756 mmHg 92%
    21:00 +12°C° 0.3 mm 1 mps 756 mmHg 92%
    22:00 +12°C° 0.3 mm 1 mps 756 mmHg 92%
    23:00 +12°C° 0.3 mm 1 mps 756 mmHg 93%

    16 December, Sunday

    Time Temperature Precipitation Wind Pressure Humidity
    00:00 +11°C° 0.2 mm 1 mps 756 mmHg 93%
    01:00 +11°C° 0.2 mm 1 mps 755 mmHg 93%
    02:00 +11°C° 0.2 mm 1 mps 755 mmHg 93%
    03:00 +11°C° 0.1 mm 1 mps 755 mmHg 93%
    04:00 +10°C° 0.1 mm 1 mps 755 mmHg 93%
    05:00 +9°C° 0.1 mm 2 mps 755 mmHg 92%
    06:00 +10°C° 0.1 mm 1 mps 755 mmHg 92%
    07:00 +10°C° 0.1 mm 1 mps 755 mmHg 91%
    08:00 +10°C° 0.1 mm 1 mps 755 mmHg 91%
    09:00 +10°C° 0.1 mm 2 mps 755 mmHg 87%
    10:00 +12°C° 0.1 mm 2 mps 755 mmHg 84%
    11:00 +13°C° 0.1 mm 2 mps 756 mmHg 80%
    12:00 +13°C° 0.1 mm 2 mps 755 mmHg 77%
    13:00 +12°C° 0.1 mm 3 mps 755 mmHg 74%
    14:00 +13°C° 0.1 mm 4 mps 755 mmHg 71%
    15:00 +12°C° 0 mm 4 mps 756 mmHg 70%
    16:00 +11°C° 0 mm 4 mps 756 mmHg 69%
    17:00 +9°C° 0 mm 5 mps 756 mmHg 68%
    18:00 +8°C° 0 mm 5 mps 757 mmHg 67%
    19:00 +7°C° 0 mm 5 mps 758 mmHg 67%
    20:00 +6°C° 0 mm 5 mps 758 mmHg 67%
    21:00 +5°C° 0 mm 5 mps 759 mmHg 67%
    22:00 +5°C° 0 mm 5 mps 759 mmHg 67%
    23:00 +3°C° 0 mm 5 mps 759 mmHg 66%

    17 December, Monday

    Time Temperature Precipitation Wind Pressure Humidity
    00:00 +4°C° 0 mm 4 mps 759 mmHg 67%
    01:00 +4°C° 0 mm 4 mps 759 mmHg 67%
    02:00 +3°C° 0 mm 4 mps 759 mmHg 67%
    03:00 +3°C° 0 mm 3 mps 759 mmHg 66%
    04:00 +3°C° 0 mm 3 mps 759 mmHg 65%
    05:00 +3°C° 0 mm 3 mps 759 mmHg 64%
    06:00 +3°C° 0 mm 3 mps 759 mmHg 62%
    07:00 +5°C° 0 mm 2 mps 760 mmHg 61%
    08:00 +5°C° 0 mm 2 mps 760 mmHg 60%
    09:00 +6°C° 0 mm 2 mps 760 mmHg 55%
    10:00 +7°C° 0 mm 2 mps 760 mmHg 51%
    11:00 +8°C° 0 mm 2 mps 760 mmHg 47%
    12:00 +9°C° 0 mm 2 mps 759 mmHg 43%
    13:00 +10°C° 0 mm 2 mps 759 mmHg 40%
    14:00 +12°C° 0 mm 2 mps 759 mmHg 37%
    15:00 +11°C° 0 mm 1 mps 759 mmHg 40%
    16:00 +10°C° 0 mm 1 mps 759 mmHg 43%
    17:00 +9°C° 0 mm 1 mps 759 mmHg 46%
    18:00 +9°C° 0 mm 1 mps 760 mmHg 47%
    19:00 +9°C° 0 mm 1 mps 760 mmHg 48%
    20:00 +8°C° 0 mm 1 mps 761 mmHg 49%
    21:00 +8°C° 0 mm 1 mps 761 mmHg 50%
    22:00 +8°C° 0 mm 1 mps 761 mmHg 51%
    23:00 +7°C° 0 mm 1 mps 761 mmHg 52%

    18 December, Tuesday

    Time Temperature Precipitation Wind Pressure Humidity
    00:00 +7°C° 0 mm 1 mps 761 mmHg 53%
    01:00 +7°C° 0 mm 1 mps 761 mmHg 54%
    02:00 +7°C° 0 mm 1 mps 761 mmHg 55%
    03:00 +7°C° 0 mm 1 mps 761 mmHg 56%
    04:00 +7°C° 0 mm 1 mps 761 mmHg 58%
    05:00 +6°C° 0 mm 1 mps 761 mmHg 59%
    06:00 +5°C° 0.1 mm 2 mps 761 mmHg 61%
    07:00 +6°C° 0.1 mm 2 mps 761 mmHg 62%
    08:00 +6°C° 0.1 mm 2 mps 761 mmHg 64%
    09:00 +6°C° 0.4 mm 2 mps 761 mmHg 66%
    10:00 +6°C° 0.4 mm 2 mps 761 mmHg 67%
    11:00 +6°C° 0.4 mm 2 mps 761 mmHg 69%
    12:00 +6°C° 0.8 mm 2 mps 761 mmHg 70%
    13:00 +7°C° 0.8 mm 3 mps 760 mmHg 72%
    14:00 +7°C° 0.8 mm 3 mps 760 mmHg 73%
    15:00 +5°C° 1.3 mm 3 mps 760 mmHg 75%
    16:00 +6°C° 1.3 mm 2 mps 760 mmHg 78%
    17:00 +6°C° 1.3 mm 2 mps 760 mmHg 80%
    18:00 +6°C° 0.8 mm 2 mps 760 mmHg 81%
    19:00 +5°C° 0.8 mm 3 mps 760 mmHg 81%
    20:00 +4°C° 0.8 mm 3 mps 760 mmHg 82%
    21:00 +4°C° 0.5 mm 3 mps 761 mmHg 81%
    22:00 +4°C° 0.5 mm 3 mps 761 mmHg 81%
    23:00 +4°C° 0.5 mm 3 mps 761 mmHg 80%
    Show more